Time,TemperatureF,DewpointF,PressureIn,WindDirection,WindDirectionDegrees,WindSpeedMPH,WindSpeedGustMPH,Humidity,HourlyPrecipIn,Conditions,Clouds,dailyrainin,SoftwareType,DateUTC
2013-02-09 00:01:00,17.0,14.0,-100.00,SSE,155,17.0,22.0,86,0.00,,,-99.99,,2013-02-09 07:01:00,
2013-02-09 00:11:00,17.0,14.0,-100.00,SSE,150,10.0,21.0,86,0.00,,,-99.99,,2013-02-09 07:11:00,
2013-02-09 00:21:00,17.0,13.0,-100.00,SSE,160,12.0,19.0,84,0.00,,,-99.99,,2013-02-09 07:21:00,
2013-02-09 00:31:00,17.0,13.0,-100.00,SSE,155,16.0,21.0,82,0.00,,,-99.99,,2013-02-09 07:31:00,
2013-02-09 00:42:00,18.0,12.0,-100.00,SSE,160,18.0,24.0,76,0.00,,,-99.99,,2013-02-09 07:42:00,
2013-02-09 00:51:00,17.0,11.0,-100.00,South,175,17.0,25.0,74,0.00,,,-99.99,,2013-02-09 07:51:00,
2013-02-09 01:01:00,18.0,10.0,-100.00,South,175,21.0,29.0,71,0.00,,,-99.99,,2013-02-09 08:01:00,
2013-02-09 01:11:00,18.0,9.0,-100.00,South,170,18.0,24.0,68,0.00,,,-99.99,,2013-02-09 08:11:00,
2013-02-09 01:21:00,17.0,9.0,-100.00,South,180,17.0,29.0,68,0.00,,,-99.99,,2013-02-09 08:21:00,
2013-02-09 01:31:00,18.0,8.0,-100.00,South,170,20.0,32.0,65,0.00,,,-99.99,,2013-02-09 08:31:00,
2013-02-09 01:42:00,17.0,8.0,-100.00,South,170,17.0,24.0,65,0.00,,,-99.99,,2013-02-09 08:42:00,
2013-02-09 01:52:00,17.0,7.0,-100.00,SE,145,12.0,24.0,65,0.00,,,-99.99,,2013-02-09 08:52:00,
2013-02-09 02:03:00,17.0,7.0,-100.00,South,180,16.0,25.0,65,0.00,,,-99.99,,2013-02-09 09:03:00,
2013-02-09 02:11:00,17.0,8.0,-100.00,South,185,17.0,24.0,67,0.00,,,-99.99,,2013-02-09 09:11:00,
2013-02-09 02:21:00,17.0,8.0,-100.00,South,175,17.0,29.0,69,0.00,,,-99.99,,2013-02-09 09:21:00,
2013-02-09 02:31:00,17.0,9.0,-100.00,SSE,165,21.0,28.0,69,0.00,,,-99.99,,2013-02-09 09:31:00,
2013-02-09 02:41:00,17.0,9.0,-100.00,South,180,15.0,26.0,70,0.00,,,-99.99,,2013-02-09 09:41:00,
2013-02-09 02:51:00,16.0,9.0,-100.00,South,175,12.0,22.0,72,0.00,,,-99.99,,2013-02-09 09:51:00,
2013-02-09 03:01:00,16.0,9.0,-100.00,South,185,12.0,22.0,73,0.00,,,-99.99,,2013-02-09 10:01:00,
2013-02-09 03:11:00,16.0,9.0,-100.00,South,180,16.0,30.0,73,0.00,,,-99.99,,2013-02-09 10:11:00,
2013-02-09 03:21:00,16.0,9.0,-100.00,South,175,13.0,19.0,73,0.00,,,-99.99,,2013-02-09 10:21:00,
2013-02-09 03:31:00,15.0,9.0,-100.00,South,180,12.0,19.0,74,0.00,,,-99.99,,2013-02-09 10:31:00,
2013-02-09 03:41:00,15.0,9.0,-100.00,South,190,12.0,16.0,75,0.00,,,-99.99,,2013-02-09 10:41:00,
2013-02-09 03:51:00,15.0,9.0,-100.00,South,185,10.0,15.0,77,0.00,,,-99.99,,2013-02-09 10:51:00,
2013-02-09 04:01:00,15.0,9.0,-100.00,South,185,11.0,17.0,77,0.00,,,-99.99,,2013-02-09 11:01:00,
2013-02-09 04:11:00,15.0,9.0,-100.00,South,185,11.0,19.0,77,0.00,,,-99.99,,2013-02-09 11:11:00,
2013-02-09 04:22:00,15.0,9.0,-100.00,South,175,12.0,20.0,76,0.00,,,-99.99,,2013-02-09 11:22:00,
2013-02-09 04:31:00,15.0,9.0,-100.00,South,175,14.0,19.0,77,0.00,,,-99.99,,2013-02-09 11:31:00,
2013-02-09 04:41:00,15.0,9.0,-100.00,South,170,17.0,24.0,76,0.00,,,-99.99,,2013-02-09 11:41:00,
2013-02-09 04:52:00,15.0,9.0,-100.00,South,170,17.0,24.0,76,0.00,,,-99.99,,2013-02-09 11:52:00,
2013-02-09 05:02:00,14.0,8.0,-100.00,South,170,17.0,24.0,76,0.00,,,-99.99,,2013-02-09 12:02:00,
2013-02-09 05:11:00,15.0,8.0,-100.00,South,170,17.0,24.0,74,0.00,,,-99.99,,2013-02-09 12:11:00,
2013-02-09 05:21:00,15.0,8.0,-100.00,South,170,15.0,22.0,74,0.00,,,-99.99,,2013-02-09 12:21:00,
2013-02-09 05:32:00,14.0,7.0,-100.00,SSE,165,14.0,20.0,73,0.00,,,-99.99,,2013-02-09 12:32:00,
2013-02-09 05:42:00,14.0,7.0,-100.00,SSE,165,14.0,19.0,73,0.00,,,-99.99,,2013-02-09 12:42:00,
2013-02-09 05:52:00,14.0,7.0,-100.00,SSE,165,16.0,20.0,72,0.00,,,-99.99,,2013-02-09 12:52:00,
2013-02-09 06:02:00,14.0,6.0,-100.00,South,175,12.0,18.0,71,0.00,,,-99.99,,2013-02-09 13:02:00,
2013-02-09 06:11:00,13.0,6.0,-100.00,South,185,9.0,16.0,72,0.00,,,-99.99,,2013-02-09 13:11:00,
2013-02-09 06:22:00,13.0,6.0,-100.00,South,175,9.0,14.0,72,0.00,,,-99.99,,2013-02-09 13:22:00,
2013-02-09 06:32:00,13.0,6.0,-100.00,South,180,13.0,16.0,72,0.00,,,-99.99,,2013-02-09 13:32:00,
2013-02-09 06:42:00,13.0,6.0,-100.00,South,175,12.0,14.0,73,0.00,,,-99.99,,2013-02-09 13:42:00,
2013-02-09 06:52:00,12.0,6.0,-100.00,South,180,8.0,16.0,74,0.00,,,-99.99,,2013-02-09 13:52:00,
2013-02-09 07:01:00,13.0,6.0,-100.00,South,170,11.0,15.0,74,0.00,,,-99.99,,2013-02-09 14:01:00,
2013-02-09 07:11:00,12.0,6.0,-100.00,South,185,9.0,19.0,73,0.00,,,-99.99,,2013-02-09 14:11:00,
2013-02-09 07:21:00,13.0,6.0,-100.00,South,180,11.0,15.0,74,0.00,,,-99.99,,2013-02-09 14:21:00,
2013-02-09 07:31:00,12.0,6.0,-100.00,South,180,12.0,16.0,73,0.00,,,-99.99,,2013-02-09 14:31:00,
2013-02-09 07:41:00,12.0,5.0,-100.00,South,175,12.0,15.0,73,0.00,,,-99.99,,2013-02-09 14:41:00,
2013-02-09 07:52:00,12.0,5.0,-100.00,South,180,9.0,15.0,72,0.00,,,-99.99,,2013-02-09 14:52:00,
2013-02-09 08:02:00,12.0,5.0,-100.00,South,185,6.0,12.0,72,0.00,,,-99.99,,2013-02-09 15:02:00,
2013-02-09 08:11:00,12.0,5.0,-100.00,South,180,9.0,14.0,72,0.00,,,-99.99,,2013-02-09 15:11:00,
2013-02-09 08:21:00,14.0,6.0,-100.00,South,180,12.0,17.0,70,0.00,,,-99.99,,2013-02-09 15:21:00,
2013-02-09 08:32:00,14.0,7.0,-100.00,South,185,11.0,16.0,70,0.00,,,-99.99,,2013-02-09 15:32:00,
2013-02-09 08:42:00,14.0,6.0,-100.00,South,180,13.0,21.0,71,0.00,,,-99.99,,2013-02-09 15:42:00,
2013-02-09 08:52:00,14.0,7.0,-100.00,South,175,18.0,24.0,72,0.00,,,-99.99,,2013-02-09 15:52:00,
2013-02-09 09:01:00,15.0,8.0,-100.00,South,170,14.0,21.0,70,0.00,,,-99.99,,2013-02-09 16:01:00,
2013-02-09 09:11:00,16.0,7.0,-100.00,South,180,17.0,31.0,68,0.00,,,-99.99,,2013-02-09 16:11:00,
2013-02-09 09:22:00,17.0,8.0,-100.00,South,180,17.0,25.0,65,0.00,,,-99.99,,2013-02-09 16:22:00,
2013-02-09 09:31:00,16.0,6.0,-100.00,South,185,21.0,31.0,63,0.00,,,-99.99,,2013-02-09 16:31:00,
2013-02-09 09:42:00,16.0,6.0,-100.00,South,175,22.0,31.0,64,0.00,,,-99.99,,2013-02-09 16:42:00,
2013-02-09 09:52:00,17.0,7.0,-100.00,SSE,165,17.0,27.0,65,0.00,,,-99.99,,2013-02-09 16:52:00,
2013-02-09 10:01:00,17.0,7.0,-100.00,South,180,17.0,37.0,64,0.00,,,-99.99,,2013-02-09 17:01:00,
2013-02-09 10:11:00,17.0,7.0,-100.00,South,175,17.0,24.0,65,0.00,,,-99.99,,2013-02-09 17:11:00,
2013-02-09 10:21:00,15.0,6.0,-100.00,South,175,21.0,31.0,65,0.00,,,-99.99,,2013-02-09 17:21:00,
2013-02-09 10:32:00,15.0,6.0,-100.00,SSE,165,19.0,37.0,68,0.00,,,-99.99,,2013-02-09 17:32:00,
2013-02-09 10:42:00,13.0,7.0,-100.00,ENE,65,5.0,30.0,77,0.40,,,-99.99,,2013-02-09 17:42:00,
2013-02-09 10:52:00,11.0,6.0,-100.00,NNE,20,6.0,11.0,81,2.70,,,-99.99,,2013-02-09 17:52:00,
2013-02-09 11:02:00,10.0,6.0,-100.00,East,85,6.0,14.0,83,3.10,,,-99.99,,2013-02-09 18:02:00,
2013-02-09 11:12:00,10.0,6.0,-100.00,NNE,20,7.0,12.0,84,3.10,,,-99.99,,2013-02-09 18:12:00,
2013-02-09 11:23:00,10.0,6.0,-100.00,North,10,4.0,11.0,84,4.50,,,-99.99,,2013-02-09 18:23:00,
2013-02-09 11:32:00,10.0,7.0,-100.00,East,90,4.0,10.0,85,1.00,,,-99.99,,2013-02-09 18:32:00,
2013-02-09 11:42:00,11.0,8.0,-100.00,North,10,3.0,7.0,85,0.40,,,-99.99,,2013-02-09 18:42:00,
2013-02-09 11:51:00,12.0,9.0,-100.00,SSE,150,2.0,6.0,85,0.20,,,-99.99,,2013-02-09 18:51:00,
2013-02-09 12:01:00,12.0,9.0,-100.00,East,95,2.0,7.0,85,0.10,,,-99.99,,2013-02-09 19:01:00,
2013-02-09 12:11:00,13.0,10.0,-100.00,North,350,1.0,7.0,85,0.30,,,-99.99,,2013-02-09 19:11:00,
2013-02-09 12:22:00,13.0,10.0,-100.00,North,0,3.0,9.0,85,0.10,,,-99.99,,2013-02-09 19:22:00,
2013-02-09 12:32:00,12.0,9.0,-100.00,SSE,160,4.0,9.0,86,0.10,,,-99.99,,2013-02-09 19:32:00,
2013-02-09 12:42:00,12.0,9.0,-100.00,SE,135,2.0,9.0,86,0.60,,,-99.99,,2013-02-09 19:42:00,
2013-02-09 12:52:00,13.0,10.0,-100.00,East,95,2.0,8.0,86,0.40,,,-99.99,,2013-02-09 19:52:00,
2013-02-09 13:01:00,12.0,9.0,-100.00,North,0,2.0,8.0,86,0.70,,,-99.99,,2013-02-09 20:01:00,
2013-02-09 13:11:00,13.0,10.0,-100.00,NE,50,1.0,6.0,87,0.50,,,-99.99,,2013-02-09 20:11:00,
2013-02-09 13:21:00,13.0,10.0,-100.00,North,10,2.0,6.0,86,0.50,,,-99.99,,2013-02-09 20:21:00,
2013-02-09 13:31:00,14.0,11.0,-100.00,NE,40,3.0,7.0,86,1.60,,,-99.99,,2013-02-09 20:31:00,
2013-02-09 13:42:00,14.0,11.0,-100.00,NE,35,3.0,8.0,87,0.90,,,-99.99,,2013-02-09 20:42:00,
2013-02-09 13:52:00,13.0,10.0,-100.00,SE,145,4.0,12.0,87,0.20,,,-99.99,,2013-02-09 20:52:00,
2013-02-09 14:02:00,13.0,10.0,-100.00,ESE,120,2.0,12.0,87,0.30,,,-99.99,,2013-02-09 21:02:00,
2013-02-09 14:11:00,13.0,10.0,-100.00,South,185,4.0,9.0,86,0.20,,,-99.99,,2013-02-09 21:11:00,
2013-02-09 14:21:00,14.0,11.0,-100.00,ESE,110,2.0,6.0,87,0.20,,,-99.99,,2013-02-09 21:21:00,
2013-02-09 14:31:00,13.0,10.0,-100.00,SE,130,1.0,7.0,87,0.60,,,-99.99,,2013-02-09 21:31:00,
2013-02-09 14:42:00,12.0,9.0,-100.00,NNE,25,2.0,7.0,87,0.30,,,-99.99,,2013-02-09 21:42:00,
2013-02-09 14:52:00,12.0,9.0,-100.00,North,5,4.0,11.0,87,0.20,,,-99.99,,2013-02-09 21:52:00,
2013-02-09 15:01:00,12.0,9.0,-100.00,NE,45,4.0,12.0,87,0.60,,,-99.99,,2013-02-09 22:01:00,
2013-02-09 15:11:00,12.0,9.0,-100.00,ESE,105,2.0,7.0,87,0.00,,,-99.99,,2013-02-09 22:11:00,
2013-02-09 15:21:00,12.0,9.0,-100.00,ESE,120,1.0,6.0,87,0.10,,,-99.99,,2013-02-09 22:21:00,
2013-02-09 15:32:00,11.0,8.0,-100.00,North,0,2.0,6.0,87,0.30,,,-99.99,,2013-02-09 22:32:00,
2013-02-09 15:42:00,11.0,8.0,-100.00,SSE,165,3.0,8.0,87,0.10,,,-99.99,,2013-02-09 22:42:00,
2013-02-09 15:51:00,11.0,8.0,-100.00,SE,145,2.0,5.0,88,0.00,,,-99.99,,2013-02-09 22:51:00,
2013-02-09 16:01:00,11.0,8.0,-100.00,NNW,340,1.0,6.0,88,0.00,,,-99.99,,2013-02-09 23:01:00,
2013-02-09 16:11:00,11.0,8.0,-100.00,NE,45,4.0,6.0,87,0.00,,,-99.99,,2013-02-09 23:11:00,
2013-02-09 16:21:00,11.0,8.0,-100.00,NNE,25,2.0,6.0,87,0.00,,,-99.99,,2013-02-09 23:21:00,
2013-02-09 16:32:00,11.0,8.0,-100.00,SW,225,1.0,6.0,87,0.00,,,-99.99,,2013-02-09 23:32:00,
2013-02-09 16:42:00,11.0,7.0,-100.00,WNW,295,1.0,6.0,86,0.00,,,-99.99,,2013-02-09 23:42:00,
2013-02-09 16:52:00,11.0,8.0,-100.00,North,0,1.0,3.0,86,0.00,,,-99.99,,2013-02-09 23:52:00,
2013-02-09 17:02:00,11.0,8.0,-100.00,East,90,1.0,6.0,87,0.00,,,-99.99,,2013-02-10 00:02:00,
2013-02-09 17:12:00,10.0,8.0,-100.00,ESE,120,2.0,6.0,87,0.00,,,-99.99,,2013-02-10 00:12:00,
2013-02-09 17:22:00,10.0,8.0,-100.00,SW,230,2.0,4.0,88,0.00,,,-99.99,,2013-02-10 00:22:00,
2013-02-09 17:32:00,10.0,7.0,-100.00,SSW,205,2.0,7.0,88,0.10,,,-99.99,,2013-02-10 00:32:00,
2013-02-09 17:42:00,10.0,7.0,-100.00,WSW,255,2.0,4.0,88,0.10,,,-99.99,,2013-02-10 00:42:00,
2013-02-09 17:51:00,9.0,6.0,-100.00,WSW,240,1.0,7.0,88,0.00,,,-99.99,,2013-02-10 00:51:00,
2013-02-09 18:01:00,9.0,6.0,-100.00,SSE,160,3.0,7.0,88,0.00,,,-99.99,,2013-02-10 01:01:00,
2013-02-09 18:12:00,9.0,6.0,-100.00,SSW,200,4.0,6.0,88,0.10,,,-99.99,,2013-02-10 01:12:00,
2013-02-09 18:21:00,9.0,6.0,-100.00,NE,40,4.0,6.0,88,0.10,,,-99.99,,2013-02-10 01:21:00,
2013-02-09 18:32:00,9.0,6.0,-100.00,ENE,70,2.0,7.0,88,0.00,,,-99.99,,2013-02-10 01:32:00,
2013-02-09 18:42:00,9.0,6.0,-100.00,NE,40,4.0,7.0,88,0.20,,,-99.99,,2013-02-10 01:42:00,
2013-02-09 18:52:00,9.0,6.0,-100.00,NE,40,3.0,5.0,88,0.20,,,-99.99,,2013-02-10 01:52:00,
2013-02-09 19:01:00,8.0,6.0,-100.00,NNE,15,4.0,7.0,88,0.20,,,-99.99,,2013-02-10 02:01:00,
2013-02-09 19:11:00,8.0,6.0,-100.00,North,0,6.0,11.0,88,0.10,,,-99.99,,2013-02-10 02:11:00,
2013-02-09 19:22:00,8.0,6.0,-100.00,North,5,6.0,8.0,88,0.40,,,-99.99,,2013-02-10 02:22:00,
2013-02-09 19:32:00,8.0,5.0,-100.00,ESE,110,2.0,7.0,88,0.20,,,-99.99,,2013-02-10 02:32:00,
2013-02-09 19:42:00,8.0,5.0,-100.00,NNW,330,3.0,6.0,88,0.50,,,-99.99,,2013-02-10 02:42:00,
2013-02-09 19:52:00,8.0,5.0,-100.00,East,95,2.0,6.0,88,1.70,,,-99.99,,2013-02-10 02:52:00,
2013-02-09 20:02:00,8.0,5.0,-100.00,North,5,2.0,7.0,88,1.10,,,-99.99,,2013-02-10 03:02:00,
2013-02-09 20:11:00,8.0,5.0,-100.00,NE,50,3.0,10.0,87,0.60,,,-99.99,,2013-02-10 03:11:00,
2013-02-09 20:21:00,8.0,5.0,-100.00,NNE,15,6.0,11.0,87,0.60,,,-99.99,,2013-02-10 03:21:00,
2013-02-09 20:32:00,8.0,5.0,-100.00,NNE,30,6.0,10.0,87,0.30,,,-99.99,,2013-02-10 03:32:00,
2013-02-09 20:41:00,7.0,5.0,-100.00,NNE,20,7.0,9.0,87,0.30,,,-99.99,,2013-02-10 03:41:00,
2013-02-09 20:52:00,7.0,5.0,-100.00,NNE,15,7.0,11.0,87,0.20,,,-99.99,,2013-02-10 03:52:00,
2013-02-09 21:01:00,7.0,4.0,-100.00,North,10,6.0,13.0,87,0.20,,,-99.99,,2013-02-10 04:01:00,
2013-02-09 21:11:00,7.0,4.0,-100.00,NNE,20,8.0,12.0,87,0.10,,,-99.99,,2013-02-10 04:11:00,
2013-02-09 21:21:00,7.0,4.0,-100.00,NNE,25,6.0,12.0,87,0.30,,,-99.99,,2013-02-10 04:21:00,
2013-02-09 21:32:00,7.0,4.0,-100.00,ENE,75,7.0,12.0,87,0.20,,,-99.99,,2013-02-10 04:32:00,
2013-02-09 21:42:00,7.0,4.0,-100.00,NNE,25,6.0,12.0,87,0.40,,,-99.99,,2013-02-10 04:42:00,
2013-02-09 21:51:00,7.0,5.0,-100.00,NE,45,6.0,13.0,87,0.90,,,-99.99,,2013-02-10 04:51:00,
2013-02-09 22:01:00,8.0,5.0,-100.00,NE,50,6.0,10.0,87,0.60,,,-99.99,,2013-02-10 05:01:00,
2013-02-09 22:11:00,7.0,5.0,-100.00,NE,50,6.0,11.0,87,0.10,,,-99.99,,2013-02-10 05:11:00,
2013-02-09 22:22:00,7.0,4.0,-100.00,NNE,15,6.0,14.0,87,0.30,,,-99.99,,2013-02-10 05:22:00,
2013-02-09 22:31:00,7.0,4.0,-100.00,East,100,7.0,14.0,87,0.20,,,-99.99,,2013-02-10 05:31:00,
2013-02-09 22:41:00,7.0,4.0,-100.00,North,0,6.0,13.0,87,0.20,,,-99.99,,2013-02-10 05:41:00,
2013-02-09 22:52:00,7.0,4.0,-100.00,NE,35,6.0,14.0,87,0.30,,,-99.99,,2013-02-10 05:52:00,
2013-02-09 23:01:00,7.0,4.0,-100.00,NE,45,6.0,11.0,87,0.20,,,-99.99,,2013-02-10 06:01:00,
2013-02-09 23:11:00,6.0,4.0,-100.00,NNE,20,6.0,13.0,87,0.20,,,-99.99,,2013-02-10 06:11:00,
2013-02-09 23:21:00,6.0,4.0,-100.00,NNE,25,4.0,12.0,87,0.30,,,-99.99,,2013-02-10 06:21:00,
2013-02-09 23:32:00,6.0,3.0,-100.00,East,90,6.0,13.0,87,0.10,,,-99.99,,2013-02-10 06:32:00,
2013-02-09 23:42:00,6.0,3.0,-100.00,NNE,15,9.0,14.0,87,0.30,,,-99.99,,2013-02-10 06:42:00,
2013-02-09 23:51:00,6.0,3.0,-100.00,North,10,5.0,12.0,87,0.10,,,-99.99,,2013-02-10 06:51:00,